Wind_Speed
101 102 101 101 103 103 103 103 101 95 91 89 90 87 84 81 80 77 77 73 68 63 61 54 59 58 55 48 42 43 38 35 35 30 27 23 22 28 31 29 28 28 26 25
98 100 104 103 105 107 107 107 106 104 101 94 94 93 89 86 84 82 80 78 75 72 65 57 56 61 59 58 51 47 45 43 37 34 33 29 25 24 25 27 25 24 27 25
99 100 102 106 109 111 109 109 107 107 106 102 101 99 95 91 87 85 84 83 80 78 73 65 64 63 63 60 57 51 54 49 43 38 32 34 32 27 25 24 24 25 23 22
101 104 104 106 110 114 114 113 112 109 109 108 106 107 104 100 95 91 86 85 83 84 81 75 69 69 69 69 66 61 57 53 48 45 36 36 37 34 29 25 25 23 19 18
83 94 106 112 116 118 119 120 117 115 113 112 111 111 111 109 105 99 94 88 87 86 89 83 75 79 69 70 68 65 60 56 51 50 44 41 42 41 35 28 26 24 22 18
87 90 92 100 115 123 123 121 120 120 117 117 114 114 115 114 112 108 101 98 92 91 92 89 86 80 78 71 68 67 61 57 58 56 51 49 50 48 41 38 31 28 25 23
81 89 93 98 103 109 116 118 122 121 119 119 117 116 117 118 116 114 108 104 101 94 94 94 94 89 82 82 76 72 63 59 57 55 49 48 47 51 47 44 40 33 30 26
60 68 76 88 97 101 102 103 105 111 118 117 117 118 119 119 121 118 116 110 108 103 98 96 99 96 91 83 79 80 75 70 62 59 51 57 56 51 50 49 50 40 36 32
45 51 59 69 74 81 89 95 96 98 103 103 112 116 119 120 120 121 120 117 111 108 105 100 102 102 100 95 88 83 87 82 73 67 63 57 59 60 55 49 53 45 40 40
37 42 47 54 59 62 70 78 83 86 91 96 94 107 119 119 120 123 123 122 116 112 109 106 106 106 106 101 98 90 88 87 80 76 70 68 61 64 58 53 54 56 49 46
26 30 33 42 48 53 55 59 66 73 79 84 89 89 108 122 121 121 124 124 122 116 114 113 110 110 109 107 109 104 88 87 83 81 83 73 67 72 63 57 54 53 50 47
23 25 28 31 38 43 48 51 55 60 68 75 78 85 96 111 124 123 123 126 125 122 117 116 117 117 116 115 113 106 100 90 90 89 85 82 74 74 67 61 59 54 51 49
29 24 24 26 27 33 40 44 49 54 58 66 73 78 89 103 113 123 123 125 127 125 121 119 122 122 121 119 120 112 105 102 93 92 92 84 79 83 74 63 64 64 59 55
32 27 27 25 26 31 35 37 45 50 55 61 67 72 82 97 104 113 121 123 125 128 127 123 125 125 124 121 119 117 109 103 100 98 95 89 85 85 75 71 72 71 66 60
38 32 28 30 30 30 32 35 41 44 50 55 61 67 74 89 100 106 115 121 124 127 130 128 124 125 126 125 123 120 116 113 109 103 103 95 87 86 84 82 72 75 66 65
39 37 32 32 33 33 34 37 39 42 42 51 57 62 69 81 93 103 109 116 122 124 128 129 124 122 127 127 127 125 122 123 115 110 106 100 96 93 87 79 81 73 64 64
40 36 35 34 36 36 38 39 39 41 44 45 52 60 65 74 84 92 100 106 111 119 122 127 129 122 124 128 131 131 126 131 125 119 119 108 104 98 86 80 79 66 66 71
37 41 42 41 41 39 38 38 38 37 40 44 47 52 60 68 76 82 89 97 106 112 119 122 128 126 123 126 132 135 131 132 133 130 126 120 110 108 97 92 92 83 81 79
37 42 45 45 41 37 34 33 32 36 37 40 44 51 54 59 67 73 83 88 97 105 110 115 120 125 124 123 127 134 135 136 134 134 133 128 121 115 114 101 93 88 95 96
33 39 41 40 36 34 35 33 32 33 32 35 39 42 49 51 58 66 71 79 85 93 102 106 112 119 122 124 124 128 133 137 136 135 133 128 126 121 117 114 114 99 102 104
26 31 33 35 36 34 32 31 34 33 30 31 35 38 44 48 51 55 61 68 73 79 88 97 104 109 116 119 121 124 129 133 138 137 134 131 130 123 119 116 117 115 113 106
25 26 28 30 32 35 33 29 34 32 30 30 34 35 39 43 45 49 53 57 64 70 77 85 94 99 104 110 116 120 126 129 137 135 135 130 129 125 121 116 118 117 115 109
25 25 24 25 29 32 32 28 29 31 31 29 33 35 36 38 40 44 49 53 58 63 70 77 82 89 95 100 108 117 122 127 130 130 133 129 129 125 124 121 115 115 114 111
27 19 15 21 27 33 32 24 26 28 30 30 32 34 35 35 39 40 42 47 55 58 64 71 75 82 89 94 98 107 116 119 121 124 127 126 130 127 123 119 114 109 98 120
22 23 20 21 25 28 31 26 24 26 26 27 30 33 34 33 36 39 41 44 49 54 59 64 69 74 81 88 92 95 101 110 115 118 120 124 126 124 117 114 114 114 111 108
18 16 13 15 24 26 27 29 25 23 24 25 29 32 32 33 35 36 40 43 46 49 53 58 62 66 70 76 82 88 91 98 104 107 115 116 116 118 114 114 110 104 105 110
17 12 14 16 20 23 22 24 22 22 22 24 26 29 31 32 34 35 40 41 44 47 50 54 58 61 63 68 75 82 88 92 95 97 100 102 108 112 111 113 112 114 109 112
Wind_Direction
235 233 232 232 232 231 232 232 233 233 231 230 232 232 231 228 227 224 225 228 229 229 227 221 224 227 231 234 228 229 230 235 244 245 243 238 233 242 250 250 250 258 261 259
235 236 235 233 233 233 232 233 233 232 231 228 230 232 231 229 227 225 224 226 226 228 228 220 222 226 229 231 224 224 231 232 233 242 247 250 250 245 245 254 254 250 254 258
235 237 238 236 234 234 233 232 233 233 232 230 230 231 231 230 228 226 225 225 223 226 227 223 223 224 222 223 223 227 232 226 229 230 241 252 251 249 252 251 257 258 259 263
236 238 239 239 238 236 234 233 232 231 233 231 230 232 231 230 228 228 225 224 223 222 226 223 222 224 220 221 225 230 231 225 227 229 239 243 247 245 245 250 257 269 272 270
236 237 238 239 239 238 237 235 232 232 231 231 229 230 232 233 230 226 227 224 223 221 223 226 221 225 219 219 223 226 225 228 224 227 238 233 238 247 251 247 248 253 265 273
238 237 236 237 239 240 239 237 236 232 230 230 229 229 231 231 232 230 224 226 223 221 223 222 225 223 221 216 221 225 226 226 230 230 235 237 241 244 243 250 245 246 251 259
240 240 241 241 242 241 242 241 240 237 232 230 231 230 229 231 231 232 228 223 224 223 221 221 223 224 224 219 222 221 225 228 225 225 230 238 242 234 241 246 244 241 247 250
246 244 243 243 244 245 245 243 242 243 239 232 230 230 231 229 231 231 231 226 223 221 221 220 221 223 223 223 217 217 221 221 224 222 224 237 243 243 239 245 243 239 243 244
257 252 248 246 244 243 244 245 244 241 241 238 230 228 230 229 229 230 231 230 225 222 219 218 220 222 222 223 221 219 217 218 222 224 226 226 232 238 238 244 240 235 237 246
263 257 251 251 249 246 241 240 242 242 239 239 235 224 226 229 228 228 229 230 227 222 219 217 219 217 223 223 226 224 219 218 222 227 230 227 233 237 235 235 237 239 238 243
273 262 254 249 249 248 245 240 237 237 238 236 233 226 223 224 227 226 227 228 229 224 219 216 214 219 217 222 223 222 220 218 222 227 230 229 231 239 232 231 233 237 241 238
280 278 263 255 246 246 247 242 237 235 235 234 231 224 220 222 224 225 224 225 227 227 220 216 214 215 218 220 224 223 223 221 222 225 226 226 227 230 227 230 233 233 234 241
282 276 275 260 251 251 244 239 236 232 232 232 230 224 221 220 221 223 224 223 224 226 225 217 215 213 217 218 223 223 224 223 221 226 225 224 224 229 231 231 234 235 239 239
277 278 280 267 256 253 250 247 238 230 229 227 227 225 221 220 219 220 222 223 222 223 224 222 217 214 213 219 219 223 222 224 221 223 221 222 223 225 229 233 244 243 238 246
277 271 267 267 260 250 248 246 240 233 230 229 227 227 222 222 221 219 220 221 221 221 223 223 220 216 213 214 218 219 220 221 222 220 219 220 220 223 228 233 241 239 239 242
270 272 272 262 263 261 251 243 245 244 234 228 227 227 225 222 223 222 220 220 221 221 221 222 222 218 215 212 215 219 218 221 219 219 216 218 223 226 229 233 241 228 229 234
266 269 272 269 266 262 257 254 244 240 238 235 231 225 227 224 224 225 223 223 222 222 221 221 222 220 217 214 212 217 218 221 221 221 220 219 222 225 229 229 224 226 226 230
266 269 272 271 266 261 258 257 251 242 241 239 239 235 227 228 227 224 225 223 223 223 223 221 221 221 218 216 213 215 218 221 222 223 222 223 222 225 225 228 229 235 236 234
261 260 263 267 270 269 265 264 263 252 240 239 239 239 234 230 231 228 226 225 223 224 225 224 223 222 220 218 217 215 217 221 223 224 225 225 224 226 227 225 229 228 237 243
266 265 269 276 280 274 267 260 258 256 252 240 239 238 237 233 231 230 227 228 226 224 224 223 223 224 224 222 220 219 217 220 224 225 225 226 226 225 229 233 231 231 237 244
277 271 272 274 274 270 262 254 252 251 246 239 238 236 236 232 230 232 231 227 226 224 223 223 223 223 224 225 224 223 221 220 223 226 226 226 228 224 228 234 238 239 240 243
292 284 273 269 269 270 270 260 254 250 245 238 238 239 234 233 229 228 229 226 224 223 222 222 223 223 223 223 224 225 226 223 223 224 227 226 228 228 228 231 237 241 242 242
295 287 286 280 273 267 262 253 249 251 245 237 235 237 232 231 228 227 226 224 222 220 219 220 221 221 222 222 223 225 226 226 226 224 226 227 229 228 231 231 234 239 245 247
296 310 295 276 266 264 264 255 244 241 241 237 235 236 235 228 224 227 223 221 217 217 216 216 218 219 220 221 223 225 227 227 228 227 227 227 228 229 231 234 235 236 234 245
296 294 289 278 273 264 266 263 246 240 238 233 235 234 234 231 224 218 217 216 216 214 214 215 216 217 219 220 220 224 226 228 228 228 229 228 229 229 231 233 237 237 239 244
311 297 283 268 262 261 257 260 255 245 237 234 232 232 228 228 224 221 218 213 213 212 212 214 216 217 219 220 221 224 226 227 228 227 229 229 229 230 231 233 234 231 233 235
322 307 296 274 265 263 257 258 255 251 240 232 230 230 226 221 220 219 219 215 213 210 209 211 211 213 215 217 219 221 224 226 228 227 227 227 227 228 229 232 233 236 236 236
Height
10671 10686 10697 10707 10713 10724 10729 10740 10750 10771 10787 10802 10810 10821 10834 10848 10857 10869 10875 10885 10896 10905 10912 10920 10927 10935 10943 10947 10952 10958 10962 10965 10969 10973 10974 10976 10979 10982 10986 10989 10991 10992 10993 10994
10654 10660 10672 10683 10688 10694 10708 10715 10729 10743 10759 10779 10788 10798 10811 10824 10836 10849 10860 10869 10880 10886 10897 10908 10915 10921 10928 10934 10940 10945 10951 10956 10960 10965 10969 10973 10975 10977 10981 10984 10988 10991 10990 10991
10637 10639 10644 10651 10663 10668 10683 10693 10709 10723 10735 10757 10768 10776 10789 10803 10816 10828 10841 10852 10863 10870 10879 10891 10898 10905 10913 10919 10927 10931 10938 10946 10952 10956 10961 10966 10971 10973 10973 10977 10982 10986 10988 10989
10616 10617 10623 10627 10632 10639 10650 10664 10680 10696 10708 10729 10746 10753 10763 10776 10793 10806 10821 10833 10845 10855 10861 10872 10881 10888 10897 10902 10911 10921 10928 10937 10943 10947 10951 10957 10963 10967 10969 10971 10974 10979 10983 10986
10590 10591 10597 10600 10595 10602 10613 10628 10647 10665 10681 10696 10715 10728 10738 10751 10766 10784 10799 10813 10824 10836 10844 10855 10867 10869 10881 10890 10898 10909 10918 10925 10931 10936 10942 10947 10953 10958 10964 10968 10969 10971 10976 10980
10561 10564 10568 10569 10563 10570 10581 10600 10615 10632 10650 10662 10682 10702 10708 10722 10737 10755 10777 10788 10803 10815 10825 10839 10847 10855 10867 10877 10885 10898 10906 10912 10917 10922 10930 10936 10941 10950 10956 10961 10963 10967 10969 10972
10540 10543 10547 10545 10541 10543 10556 10579 10580 10596 10620 10638 10654 10673 10685 10694 10708 10723 10747 10766 10777 10793 10806 10819 10827 10838 10849 10862 10874 10885 10892 10898 10906 10911 10918 10924 10930 10937 10945 10950 10954 10957 10961 10963
10520 10521 10523 10518 10521 10527 10532 10543 10555 10564 10581 10608 10626 10643 10654 10670 10677 10694 10710 10736 10751 10767 10784 10799 10810 10821 10832 10845 10858 10868 10874 10881 10889 10898 10904 10912 10917 10923 10930 10936 10942 10946 10951 10954
10499 10497 10497 10493 10497 10503 10508 10513 10525 10536 10544 10561 10592 10612 10622 10639 10655 10667 10681 10701 10725 10743 10761 10779 10789 10800 10810 10824 10834 10844 10851 10860 10869 10879 10887 10895 10904 10910 10916 10922 10929 10934 10939 10945
10481 10479 10479 10477 10478 10482 10486 10490 10498 10507 10517 10530 10551 10574 10589 10604 10623 10639 10652 10666 10693 10716 10736 10754 10769 10783 10790 10804 10816 10826 10837 10849 10855 10865 10875 10882 10891 10897 10904 10909 10915 10922 10926 10933
10468 10466 10464 10465 10465 10465 10467 10472 10477 10484 10492 10501 10517 10539 10555 10569 10584 10606 10621 10636 10654 10683 10705 10727 10745 10756 10771 10779 10788 10803 10820 10831 10840 10847 10856 10867 10879 10886 10894 10896 10901 10908 10916 10923
10456 10454 10453 10452 10451 10452 10453 10455 10460 10465 10470 10477 10490 10505 10521 10535 10549 10568 10589 10605 10624 10643 10676 10698 10717 10730 10743 10757 10769 10787 10800 10813 10820 10830 10838 10852 10864 10871 10878 10882 10888 10894 10899 10909
10446 10444 10443 10441 10441 10439 10439 10441 10444 10448 10452 10457 10465 10478 10493 10505 10517 10535 10557 10575 10595 10616 10639 10665 10684 10705 10719 10736 10748 10765 10779 10792 10801 10811 10826 10835 10846 10856 10860 10866 10871 10880 10887 10894
10432 10432 10431 10431 10429 10427 10427 10427 10431 10433 10436 10440 10447 10458 10469 10479 10492 10506 10524 10544 10563 10585 10603 10626 10649 10673 10696 10711 10728 10743 10757 10768 10781 10793 10804 10817 10828 10841 10846 10851 10858 10865 10872 10878
10420 10421 10420 10419 10418 10417 10416 10416 10417 10420 10424 10430 10435 10442 10452 10459 10472 10484 10497 10512 10531 10551 10571 10590 10617 10643 10666 10686 10702 10719 10734 10744 10756 10775 10786 10800 10811 10823 10832 10838 10845 10850 10859 10865
10408 10407 10407 10406 10404 10405 10404 10404 10405 10408 10412 10413 10417 10423 10432 10439 10448 10459 10472 10484 10501 10520 10540 10563 10585 10613 10638 10659 10675 10689 10706 10717 10733 10750 10765 10778 10790 10803 10814 10821 10827 10835 10845 10849
10396 10396 10396 10395 10393 10392 10391 10392 10395 10396 10398 10402 10405 10409 10416 10422 10428 10442 10455 10470 10484 10498 10516 10535 10556 10582 10608 10630 10650 10662 10679 10691 10710 10727 10740 10756 10770 10783 10795 10802 10812 10816 10824 10831
10384 10383 10381 10379 10378 10378 10377 10378 10383 10387 10391 10392 10395 10399 10404 10407 10414 10427 10437 10451 10465 10479 10493 10509 10530 10552 10577 10600 10621 10637 10654 10668 10685 10700 10715 10729 10750 10762 10773 10781 10787 10795 10807 10812
10374 10368 10365 10364 10365 10366 10366 10367 10370 10373 10377 10380 10385 10387 10390 10395 10402 10410 10419 10430 10443 10457 10474 10492 10510 10527 10550 10573 10593 10613 10629 10643 10659 10675 10689 10707 10726 10739 10749 10759 10768 10778 10788 10791
10362 10360 10356 10354 10354 10355 10355 10356 10358 10359 10364 10368 10370 10374 10377 10381 10387 10394 10403 10414 10425 10438 10452 10469 10488 10506 10525 10548 10568 10587 10607 10623 10636 10650 10666 10686 10701 10720 10731 10740 10752 10760 10768 10777
10351 10349 10348 10344 10342 10341 10342 10344 10345 10348 10351 10355 10357 10361 10364 10368 10374 10381 10391 10400 10409 10421 10435 10450 10466 10483 10503 10524 10546 10563 10580 10600 10613 10627 10642 10660 10676 10697 10714 10723 10728 10740 10748 10759
10340 10337 10336 10334 10333 10330 10330 10332 10333 10337 10340 10343 10347 10350 10354 10359 10364 10370 10378 10386 10395 10405 10418 10431 10446 10464 10481 10501 10521 10538 10552 10570 10581 10606 10618 10643 10658 10677 10695 10704 10708 10718 10727 10737
10331 10327 10325 10323 10320 10317 10317 10318 10321 10326 10329 10333 10336 10338 10344 10350 10354 10358 10365 10373 10381 10390 10401 10414 10429 10447 10463 10478 10494 10510 10525 10539 10558 10580 10594 10621 10634 10654 10667 10683 10692 10697 10708 10716
10322 10320 10317 10314 10309 10305 10305 10310 10311 10313 10317 10323 10327 10330 10333 10340 10344 10349 10356 10364 10370 10379 10390 10400 10413 10427 10442 10458 10472 10485 10501 10517 10538 10558 10573 10592 10607 10629 10643 10657 10670 10681 10691 10681
10314 10311 10308 10305 10302 10298 10297 10299 10302 10304 10306 10312 10317 10320 10324 10331 10336 10340 10346 10352 10362 10371 10380 10390 10401 10413 10426 10439 10454 10468 10482 10496 10513 10531 10550 10565 10583 10602 10623 10637 10643 10654 10658 10653
10305 10303 10302 10298 10291 10290 10291 10290 10293 10296 10298 10302 10306 10310 10316 10322 10328 10335 10338 10343 10351 10361 10370 10381 10391 10402 10413 10426 10440 10453 10465 10475 10490 10512 10522 10544 10565 10581 10597 10605 10620 10627 10629 10634
10299 10296 10293 10289 10286 10284 10284 10284 10286 10288 10292 10295 10298 10303 10309 10314 10319 10327 10332 10338 10345 10352 10360 10371 10379 10389 10400 10412 10423 10434 10444 10456 10470 10489 10507 10524 10538 10553 10568 10577 10588 10597 10606 10606